Voltar ao catálogo

KUIPER-00502

AtivoComunicaçõesLEO
NORAD 68883·PAYLOAD·🇺🇸 United States

Lançado Apr 28, 2026 de Cape Canaveral Space Force Station

Loading…

Próximas Passagens (próximas 24 horas)

TLE

AtualizadoSource: CelesTrak SupGP

Época: Sep 14, 2026, 21:39 UTC

1 68883C 26095V   26257.90216435 -.00000536  00000+0 -70105-4 0  2576
2 68883  51.8994 190.1962 0001298  61.6428 151.5081 14.79931159    17

Acompanhe KUIPER-00502 em tempo real com AllMySat

Download on the App Store